Location: Unspecified
(0.0000°N, 0.0000°E)
Time: 09:51:58
(UTC+00:00)

MIDAS 4 DEB - Pass Details

Date: 15 November 2025
Orbit: 3306 x 3926 km, 95.8° (Epoch: 14 April)

Event Time Altitude Azimuth Distance (km) Brightness Sun altitude
Rises 22:17:24 0° 347° (NNW) 7,428 ? -61.5°
Enters shadow 22:18:08 - 346° (NNW) 7,275 ? -61.7°
Exits shadow 22:32:52 29° 302° (WNW) 5,139 ? -64.3°
Maximum altitude 22:36:42 32° 282° (WNW) 5,068 ? -64.9°
Drops below altitude 10° 22:52:22 10° 226° (SW) 6,900 ? -67.3°
Sets 22:58:07 0° 215° (SW) 8,000 ? -68.1°
